Dewpoint
31 32 33 34 34 34 35 35 36 36 36 36 36 36 36 35 34 32 32 33 33 34 34 34 35 36 37 37 35 37 38 39
31 32 32 33 33 32 33 33 35 35 35 35 34 34 34 33 32 32 32 32 33 32 33 34 35 35 37 38 39 38 37 38
30 31 32 32 32 31 32 31 35 35 35 34 34 33 33 32 32 31 31 31 31 32 32 32 32 33 35 35 36 38 39 37
30 30 30 31 31 31 31 30 34 35 34 33 33 32 32 31 31 30 30 30 30 32 30 30 31 32 33 34 35 36 37 39
29 28 28 29 29 30 30 29 32 35 33 33 31 31 30 30 30 29 29 30 30 31 30 31 31 32 33 33 35 36 36 36
28 27 27 26 27 28 28 27 30 32 33 32 31 29 30 30 29 29 29 29 30 30 30 30 31 32 33 33 34 35 36 37
28 28 27 25 24 27 26 24 25 27 32 31 30 28 28 29 28 28 28 28 30 29 29 29 30 30 32 32 33 35 36 38
28 29 27 24 24 28 27 23 24 25 28 29 29 29 28 28 27 27 27 28 28 28 29 28 29 29 31 32 33 35 37 39
29 30 27 24 23 28 27 23 24 24 26 27 28 27 27 27 27 27 28 28 28 27 28 28 29 28 29 30 32 32 34 35
29 29 29 24 24 27 25 23 25 24 26 25 26 26 25 25 25 26 27 27 26 26 26 27 28 27 27 28 29 30 31 33
28 29 30 27 28 26 26 25 26 24 25 24 24 25 25 25 26 25 26 26 25 24 25 26 26 27 26 26 27 27 27 28
27 29 30 29 28 26 27 26 25 25 25 24 25 25 25 25 24 25 25 25 24 22 23 25 25 26 24 24 24 25 24 24
30 28 29 27 28 28 26 29 27 26 25 25 24 25 25 26 24 24 24 23 23 20 21 23 25 23 24 23 22 23 22 22
30 27 28 23 27 22 27 29 28 28 25 25 23 24 25 26 25 24 23 23 20 20 20 20 24 23 21 21 21 21 21 21
29 29 28 27 28 26 26 30 29 29 25 25 22 22 26 27 27 23 20 20 21 18 18 19 21 23 21 20 19 19 19 20
29 28 27 28 28 26 25 20 22 24 25 26 25 25 28 29 26 23 21 18 19 19 17 17 19 22 21 19 18 18 19 17
30 29 29 28 27 24 20 20 20 18 19 20 20 20 20 22 22 23 21 20 19 19 18 17 18 20 18 18 18 17 18 18
29 29 29 27 19 19 20 21 22 22 20 20 21 21 20 20 21 21 22 20 21 20 19 18 17 17 18 17 17 18 17 18
30 29 25 21 21 19 21 23 22 22 22 22 22 21 21 21 21 20 21 22 21 20 18 17 18 16 16 17 15 16 17 17
Wind_Speed
16 15 11 13 12 11 12 12 13 15 16 14 14 14 14 14 15 16 18 17 18 17 16 18 18 17 16 16 18 16 18 19
16 15 12 12 13 12 12 13 12 13 14 15 15 16 13 12 15 16 18 18 17 17 15 17 17 17 19 19 18 17 17 15
16 15 13 13 11 12 12 12 12 14 14 11 8 14 11 13 13 15 18 20 20 18 18 18 18 17 17 18 20 19 15 14
17 15 13 13 13 12 12 13 13 15 14 11 10 9 10 15 16 17 19 20 20 18 18 20 19 17 16 17 17 18 19 15
17 16 14 15 13 14 13 13 14 14 15 15 16 14 13 13 15 16 17 18 20 20 19 20 19 17 17 17 16 17 16 18
17 14 16 16 16 14 12 13 16 16 15 15 13 13 12 12 14 17 18 18 18 19 20 19 19 17 18 18 18 17 16 17
18 13 17 16 15 14 11 13 16 16 14 15 15 14 14 14 16 16 18 17 17 18 20 20 19 19 18 18 18 18 17 18
16 12 12 13 13 11 11 14 15 15 14 13 14 13 13 14 15 17 19 18 17 20 21 22 20 21 19 19 17 17 16 17
13 10 12 12 10 8 10 12 12 13 14 13 12 11 11 11 12 14 14 15 17 19 20 22 22 22 20 19 15 17 17 17
14 9 12 11 9 6 9 10 10 11 12 12 13 13 13 12 13 13 13 15 17 18 20 22 23 23 23 21 18 23 21 20
13 9 11 10 8 6 8 9 8 8 10 11 11 12 12 12 13 14 15 15 17 19 21 21 25 23 24 23 21 23 24 24
15 11 11 11 8 6 5 6 6 7 7 8 9 10 10 12 14 13 14 14 16 19 20 20 24 24 24 22 22 25 27 27
15 13 10 9 8 6 4 4 3 3 4 5 8 7 8 10 12 12 13 15 14 19 19 20 20 23 23 24 23 24 26 29
14 12 11 10 7 5 7 6 7 6 5 4 5 4 6 7 8 10 13 12 16 17 20 21 20 20 23 22 23 23 23 25
10 9 9 8 6 7 7 9 9 8 8 4 4 2 4 5 3 7 14 14 14 18 18 20 20 16 21 23 22 22 24 23
11 11 11 9 9 9 5 8 8 10 8 6 3 1 2 3 7 7 11 16 18 14 16 19 20 19 20 21 21 23 23 25
15 14 12 10 10 9 12 9 8 11 11 10 11 11 12 11 11 8 12 13 15 16 17 18 20 20 26 25 21 20 22 24
18 17 13 11 9 11 12 11 11 12 11 10 10 11 11 12 11 11 11 14 13 16 16 17 19 22 27 25 24 17 20 21
18 16 15 12 11 11 11 13 12 11 11 10 11 11 11 11 12 12 12 8 13 14 15 16 16 22 28 25 22 17 19 22
Wind_Direction
110 100 78 78 62 42 43 30 26 35 21 16 25 11 13 12 23 11 4 0 353 351 341 339 327 318 314 313 308 306 303 307
114 108 92 80 60 40 41 27 35 39 24 27 17 8 8 20 13 4 7 355 353 345 349 342 339 331 326 317 304 301 304 307
122 110 97 86 70 44 41 20 51 42 47 38 15 4 4 20 5 6 2 359 350 350 349 341 335 326 321 320 319 311 296 296
126 112 101 86 71 50 37 15 52 50 50 38 23 9 10 7 6 2 1 353 353 342 348 335 327 322 313 309 307 305 309 299
117 110 99 89 68 47 32 26 48 54 47 45 36 21 6 4 1 359 357 356 350 339 344 334 328 321 315 312 306 300 295 291
112 104 104 84 64 43 27 40 47 40 48 51 41 27 9 2 3 1 359 354 343 339 346 339 335 328 318 315 309 298 287 279
114 110 101 82 60 34 24 45 43 36 45 52 42 26 10 10 6 5 1 349 340 345 351 348 342 335 328 322 310 297 288 279
125 114 104 85 65 36 21 45 36 30 34 54 47 30 17 16 10 10 355 348 344 348 357 352 347 342 338 329 322 321 312 297
131 123 114 95 76 45 38 51 38 29 28 49 50 37 30 19 17 13 356 347 346 351 354 357 352 353 349 345 350 350 342 340
146 130 124 103 92 55 58 60 45 35 34 46 35 37 37 17 25 15 1 353 350 353 1 3 354 0 2 3 7 5 360 360
145 133 126 111 112 84 75 76 65 48 49 50 44 42 39 27 28 17 357 354 357 1 7 9 3 5 5 11 15 11 12 6
158 138 118 128 117 116 104 95 82 61 59 61 56 51 46 38 35 19 4 0 7 12 10 6 15 9 10 13 20 19 18 10
154 151 136 127 140 164 151 161 153 150 89 81 68 60 51 48 40 26 16 11 14 20 14 13 13 16 12 15 20 24 26 15
137 147 157 158 169 191 199 204 205 185 170 113 79 51 42 48 45 33 26 16 26 23 18 13 13 21 18 16 19 23 27 24
152 154 152 168 188 219 218 222 208 181 177 138 124 61 41 55 70 56 52 29 27 34 22 14 11 20 30 18 18 22 26 26
175 188 187 191 194 219 187 100 107 132 127 111 119 169 19 90 110 91 73 55 37 32 31 25 15 22 37 35 17 17 22 29
179 179 177 192 217 200 120 102 92 97 84 74 70 67 49 51 66 82 68 59 49 33 34 28 29 28 32 36 37 24 20 27
168 164 177 196 160 125 128 112 79 69 77 64 67 67 57 44 42 58 65 59 51 43 36 29 32 33 32 36 33 34 26 20
164 168 164 141 121 122 121 113 96 77 60 57 50 60 55 50 40 47 49 64 61 55 44 37 25 33 34 32 34 34 33 27